�������l�o���
Date,Time,MP-1(��Sv/h),MP-2(��Sv/h),MP-3(��Sv/h),MP-4(��Sv/h),MP-5(��Sv/h),MP-6(��Sv/h),MP-7(��Sv/h),MP-8(��Sv/h),����,����(m/s),���J
2022/08/12,00:00,0.601,0.856,0.537,1.020,0.741,0.344,0.593,0.558,��,9.5,��
2022/08/12,00:10,0.601,0.854,0.538,1.021,0.741,0.343,0.593,0.558,��,10.2,��
2022/08/12,00:20,0.601,0.854,0.537,1.020,0.740,0.343,0.592,0.559,��,9.4,��
2022/08/12,00:30,0.600,0.856,0.538,1.020,0.740,0.343,0.592,0.558,��,8.4,��
2022/08/12,00:40,0.601,0.854,0.538,1.019,0.740,0.344,0.592,0.557,��,8.2,��
2022/08/12,00:50,0.599,0.855,0.539,1.017,0.739,0.343,0.593,0.557,��,7.5,��
2022/08/12,01:00,0.599,0.854,0.538,1.018,0.742,0.342,0.593,0.558,��,7.7,��
2022/08/12,01:10,0.601,0.855,0.537,1.016,0.741,0.345,0.591,0.559,��,7.9,��
2022/08/12,01:20,0.600,0.854,0.540,1.018,0.742,0.342,0.593,0.557,��,8.1,��
2022/08/12,01:30,0.600,0.852,0.539,1.019,0.741,0.342,0.593,0.557,��,8.6,��
2022/08/12,01:40,0.602,0.854,0.537,1.017,0.741,0.343,0.594,0.557,��,9.5,��
2022/08/12,01:50,0.599,0.853,0.539,1.019,0.740,0.343,0.592,0.560,��,7.9,��
2022/08/12,02:00,0.599,0.853,0.537,1.020,0.738,0.343,0.593,0.559,��,7.2,��
2022/08/12,02:10,0.600,0.854,0.536,1.018,0.741,0.341,0.592,0.558,��,6.0,��
2022/08/12,02:20,0.598,0.854,0.539,1.018,0.739,0.342,0.593,0.559,��,6.2,��
2022/08/12,02:30,0.599,0.853,0.537,1.018,0.740,0.344,0.593,0.560,��,6.4,��
2022/08/12,02:40,0.600,0.852,0.536,1.018,0.738,0.344,0.594,0.559,��,6.8,�L
2022/08/12,02:50,0.601,0.853,0.537,1.019,0.739,0.343,0.592,0.560,��,5.5,�L
2022/08/12,03:00,0.600,0.852,0.538,1.020,0.739,0.342,0.592,0.558,��,4.6,��
2022/08/12,03:10,0.598,0.852,0.537,1.020,0.740,0.344,0.591,0.559,��,5.1,��
2022/08/12,03:20,0.599,0.853,0.538,1.017,0.739,0.343,0.593,0.557,��쐼,3.5,��
2022/08/12,03:30,0.600,0.852,0.539,1.020,0.740,0.344,0.593,0.560,��,4.4,��
2022/08/12,03:40,0.601,0.854,0.539,1.017,0.741,0.343,0.591,0.560,��쓌,3.6,��
2022/08/12,03:50,0.601,0.854,0.538,1.018,0.740,0.344,0.593,0.559,��쓌,4.0,��
2022/08/12,04:00,0.600,0.853,0.537,1.019,0.740,0.344,0.593,0.559,��쓌,5.2,��
2022/08/12,04:10,0.601,0.855,0.536,1.020,0.740,0.344,0.592,0.559,��,5.1,��
2022/08/12,04:20,0.600,0.854,0.538,1.017,0.741,0.344,0.593,0.560,��,5.6,��
2022/08/12,04:30,0.601,0.854,0.537,1.019,0.738,0.343,0.593,0.559,��,6.1,��
2022/08/12,04:40,0.600,0.854,0.539,1.018,0.741,0.344,0.594,0.558,��쐼,6.2,��
2022/08/12,04:50,0.602,0.853,0.538,1.018,0.741,0.343,0.593,0.559,��쐼,9.0,��
2022/08/12,05:00,0.602,0.854,0.538,1.021,0.740,0.345,0.594,0.558,��쐼,10.8,��
2022/08/12,05:10,0.600,0.853,0.539,1.020,0.739,0.344,0.595,0.558,��쐼,10.4,��
2022/08/12,05:20,0.600,0.854,0.539,1.019,0.739,0.343,0.593,0.559,��,10.5,��
2022/08/12,05:30,0.601,0.856,0.538,1.020,0.739,0.343,0.594,0.559,��,8.9,��
2022/08/12,05:40,0.603,0.854,0.537,1.019,0.739,0.344,0.593,0.558,��쐼,5.8,��
2022/08/12,05:50,0.603,0.854,0.538,1.017,0.739,0.343,0.594,0.560,��쐼,2.8,��
2022/08/12,06:00,0.601,0.852,0.539,1.018,0.740,0.343,0.594,0.560,-,CALM,��
2022/08/12,06:10,0.600,0.855,0.538,1.019,0.739,0.344,0.594,0.560,��,1.1,��
2022/08/12,06:20,0.601,0.854,0.538,1.017,0.740,0.343,0.593,0.559,���쓌,2.6,��
2022/08/12,06:30,0.601,0.856,0.538,1.019,0.739,0.343,0.593,0.557,�쓌,2.3,��
2022/08/12,06:40,0.600,0.854,0.539,1.017,0.738,0.344,0.593,0.559,��쓌,3.5,��
2022/08/12,06:50,0.600,0.855,0.538,1.016,0.740,0.344,0.591,0.558,��쓌,4.0,��
2022/08/12,07:00,0.600,0.855,0.537,1.017,0.742,0.343,0.592,0.559,��쓌,3.1,��
2022/08/12,07:10,0.601,0.853,0.540,1.018,0.741,0.343,0.594,0.559,��쓌,4.3,��
2022/08/12,07:20,0.601,0.856,0.538,1.021,0.742,0.344,0.592,0.558,��,5.7,��
2022/08/12,07:30,0.599,0.855,0.539,1.018,0.742,0.344,0.593,0.559,��쐼,5.3,��
2022/08/12,07:40,0.601,0.853,0.539,1.018,0.739,0.344,0.594,0.560,��쐼,6.8,��
2022/08/12,07:50,0.602,0.854,0.539,1.020,0.740,0.345,0.594,0.560,�쐼,5.9,��
2022/08/12,08:00,0.602,0.855,0.539,1.018,0.740,0.343,0.594,0.557,�쐼,4.8,��
2022/08/12,08:10,0.603,0.854,0.538,1.019,0.742,0.343,0.594,0.559,��쐼,3.8,��
2022/08/12,08:20,0.602,0.856,0.538,1.016,0.738,0.344,0.593,0.558,��쐼,5.0,��
2022/08/12,08:30,0.602,0.854,0.537,1.020,0.740,0.343,0.595,0.558,��,4.1,��
2022/08/12,08:40,0.601,0.856,0.539,1.018,0.742,0.343,0.594,0.557,��,5.3,��
2022/08/12,08:50,0.604,0.856,0.539,1.018,0.740,0.343,0.594,0.556,��,7.4,��
2022/08/12,09:00,0.604,0.855,0.540,1.019,0.741,0.345,0.595,0.557,��,6.5,��
2022/08/12,09:10,0.604,0.854,0.537,1.018,0.741,0.343,0.595,0.558,��,5.7,��
2022/08/12,09:20,0.603,0.855,0.538,1.021,0.742,0.343,0.594,0.557,��쐼,6.5,��
2022/08/12,09:30,0.603,0.857,0.539,1.019,0.740,0.343,0.594,0.556,��,7.1,��
2022/08/12,09:40,0.602,0.855,0.537,1.021,0.741,0.344,0.592,0.557,��,6.9,��
2022/08/12,09:50,0.603,0.857,0.537,1.020,0.742,0.343,0.594,0.557,��,7.6,��
2022/08/12,10:00,0.601,0.857,0.537,1.021,0.743,0.343,0.595,0.557,��,7.7,��
2022/08/12,10:10,0.602,0.857,0.539,1.022,0.741,0.344,0.594,0.557,��,8.1,��
2022/08/12,10:20,0.603,0.857,0.538,1.019,0.741,0.344,0.596,0.557,��,9.2,��
2022/08/12,10:30,0.601,0.858,0.539,1.020,0.742,0.344,0.597,0.556,��,8.0,��
2022/08/12,10:40,0.603,0.857,0.538,1.020,0.744,0.344,0.595,0.558,��,7.5,��
2022/08/12,10:50,0.604,0.857,0.539,1.019,0.743,0.346,0.595,0.558,��,9.3,��
2022/08/12,11:00,0.602,0.858,0.539,1.020,0.744,0.344,0.594,0.557,��,9.2,��
2022/08/12,11:10,0.604,0.857,0.539,1.022,0.743,0.345,0.594,0.557,��,8.5,��
2022/08/12,11:20,0.604,0.858,0.540,1.023,0.743,0.345,0.593,0.558,��쓌,11.6,��
2022/08/12,11:30,0.604,0.857,0.540,1.024,0.742,0.345,0.595,0.558,��,10.2,��
2022/08/12,11:40,0.604,0.858,0.540,1.021,0.743,0.345,0.593,0.558,��,9.6,��
2022/08/12,11:50,0.603,0.859,0.540,1.021,0.744,0.345,0.592,0.558,��,9.7,��
2022/08/12,12:00,0.603,0.858,0.537,1.021,0.742,0.344,0.593,0.556,��,8.4,��
2022/08/12,12:10,0.604,0.860,0.538,1.020,0.744,0.344,0.594,0.557,��,8.6,��
2022/08/12,12:20,0.602,0.860,0.538,1.022,0.743,0.345,0.593,0.557,��,6.7,��
2022/08/12,12:30,0.603,0.858,0.537,1.021,0.743,0.344,0.594,0.559,��,7.3,��
2022/08/12,12:40,0.603,0.858,0.538,1.022,0.745,0.344,0.596,0.559,��,7.2,��
2022/08/12,12:50,0.605,0.858,0.539,1.022,0.745,0.344,0.596,0.559,��,7.2,��
2022/08/12,13:00,0.605,0.860,0.540,1.021,0.744,0.344,0.596,0.558,��,7.6,��
2022/08/12,13:10,0.605,0.858,0.542,1.022,0.745,0.344,0.595,0.558,��,7.6,��
2022/08/12,13:20,0.605,0.862,0.541,1.024,0.745,0.344,0.595,0.559,��,7.8,��
2022/08/12,13:30,0.605,0.860,0.541,1.025,0.747,0.345,0.595,0.559,��,7.4,��
2022/08/12,13:40,0.605,0.859,0.541,1.023,0.745,0.345,0.595,0.559,��,9.7,��
2022/08/12,13:50,0.603,0.861,0.541,1.022,0.750,0.344,0.596,0.558,��,9.8,��
2022/08/12,14:00,0.608,0.863,0.543,1.023,0.749,0.347,0.597,0.558,��,9.3,��
2022/08/12,14:10,0.606,0.863,0.542,1.024,0.748,0.346,0.598,0.559,��,8.3,��
2022/08/12,14:20,0.606,0.864,0.544,1.025,0.747,0.345,0.598,0.561,��,9.3,��
2022/08/12,14:30,0.608,0.863,0.544,1.025,0.746,0.345,0.597,0.561,��,9.3,��
2022/08/12,14:40,0.607,0.863,0.542,1.027,0.748,0.344,0.596,0.560,��,9.4,��
2022/08/12,14:50,0.606,0.862,0.540,1.025,0.747,0.344,0.596,0.561,��,8.8,��
2022/08/12,15:00,0.605,0.864,0.541,1.027,0.746,0.344,0.594,0.559,��,9.6,��
2022/08/12,15:10,0.607,0.861,0.541,1.028,0.747,0.343,0.594,0.558,��,8.9,��
2022/08/12,15:20,0.607,0.862,0.543,1.024,0.747,0.344,0.593,0.559,��,9.0,��
2022/08/12,15:30,0.606,0.861,0.541,1.027,0.748,0.344,0.593,0.558,��,8.8,��
2022/08/12,15:40,0.606,0.861,0.542,1.026,0.748,0.344,0.594,0.558,��,8.2,��
2022/08/12,15:50,0.605,0.863,0.541,1.025,0.749,0.344,0.593,0.558,��,8.4,��
2022/08/12,16:00,0.606,0.862,0.541,1.025,0.746,0.343,0.594,0.557,��,9.2,��
2022/08/12,16:10,0.607,0.861,0.543,1.025,0.745,0.343,0.594,0.556,��,8.2,��
2022/08/12,16:20,0.606,0.862,0.540,1.026,0.746,0.344,0.593,0.557,��,7.3,��
2022/08/12,16:30,0.606,0.861,0.542,1.027,0.746,0.343,0.594,0.558,��,7.2,��
2022/08/12,16:40,0.606,0.860,0.542,1.025,0.747,0.344,0.594,0.557,��,7.9,��
2022/08/12,16:50,0.606,0.861,0.541,1.025,0.746,0.343,0.594,0.558,��,8.1,��
2022/08/12,17:00,0.606,0.861,0.541,1.026,0.747,0.346,0.594,0.560,��쐼,6.3,��
2022/08/12,17:10,0.606,0.860,0.541,1.025,0.747,0.345,0.596,0.559,��쐼,8.0,��
2022/08/12,17:20,0.606,0.861,0.541,1.027,0.746,0.344,0.595,0.560,��쐼,8.3,��
2022/08/12,17:30,0.608,0.861,0.541,1.024,0.746,0.345,0.595,0.558,��,9.6,��
2022/08/12,17:40,0.609,0.862,0.542,1.025,0.746,0.345,0.595,0.559,��,8.9,��
2022/08/12,17:50,0.608,0.862,0.541,1.026,0.747,0.346,0.594,0.559,��,9.8,��
2022/08/12,18:00,0.607,0.862,0.541,1.026,0.746,0.345,0.595,0.558,��,11.6,��
2022/08/12,18:10,0.610,0.861,0.542,1.026,0.748,0.345,0.596,0.560,��,11.6,��
2022/08/12,18:20,0.609,0.863,0.542,1.026,0.749,0.345,0.595,0.558,��,11.8,��
2022/08/12,18:30,0.608,0.864,0.541,1.026,0.747,0.344,0.595,0.560,��,11.1,��
2022/08/12,18:40,0.608,0.862,0.541,1.027,0.747,0.346,0.593,0.558,��,13.9,��
2022/08/12,18:50,0.608,0.859,0.541,1.027,0.747,0.342,0.595,0.559,��,14.9,��
2022/08/12,19:00,0.607,0.863,0.543,1.029,0.749,0.345,0.595,0.559,��,11.7,��
2022/08/12,19:10,0.610,0.863,0.543,1.028,0.749,0.346,0.594,0.560,��,12.7,��
2022/08/12,19:20,0.608,0.861,0.542,1.028,0.747,0.343,0.595,0.560,��,12.5,��
2022/08/12,19:30,0.609,0.864,0.542,1.030,0.748,0.343,0.596,0.558,��,12.8,��
2022/08/12,19:40,0.607,0.862,0.540,1.027,0.748,0.345,0.595,0.559,��,10.7,��
2022/08/12,19:50,0.605,0.862,0.541,1.027,0.747,0.346,0.596,0.559,��,9.9,��
2022/08/12,20:00,0.605,0.863,0.542,1.027,0.747,0.343,0.596,0.559,��,9.2,��
2022/08/12,20:10,0.606,0.862,0.543,1.027,0.747,0.346,0.594,0.560,��,6.5,��
2022/08/12,20:20,0.605,0.862,0.541,1.028,0.750,0.345,0.596,0.559,��,5.7,��
2022/08/12,20:30,0.605,0.863,0.542,1.027,0.749,0.346,0.595,0.560,��쐼,6.2,��
2022/08/12,20:40,0.606,0.863,0.541,1.028,0.747,0.347,0.596,0.560,��쐼,6.7,��
2022/08/12,20:50,0.605,0.863,0.541,1.028,0.746,0.346,0.596,0.561,��쐼,7.8,��
2022/08/12,21:00,0.607,0.863,0.541,1.025,0.747,0.344,0.596,0.560,��쐼,9.1,��
2022/08/12,21:10,0.607,0.862,0.542,1.026,0.748,0.345,0.595,0.560,��쐼,7.7,��
2022/08/12,21:20,0.607,0.862,0.541,1.028,0.747,0.345,0.596,0.561,��,8.9,��
2022/08/12,21:30,0.607,0.863,0.541,1.028,0.748,0.345,0.597,0.561,��쐼,8.9,��
2022/08/12,21:40,0.605,0.860,0.543,1.026,0.748,0.346,0.597,0.559,��,8.9,��
2022/08/12,21:50,0.606,0.861,0.543,1.026,0.749,0.345,0.596,0.561,��,9.0,��
2022/08/12,22:00,0.605,0.861,0.540,1.030,0.747,0.344,0.597,0.558,��쐼,8.9,��
2022/08/12,22:10,0.608,0.863,0.541,1.028,0.747,0.346,0.597,0.561,��,10.3,��
2022/08/12,22:20,0.606,0.863,0.542,1.027,0.747,0.345,0.596,0.559,��쐼,10.9,��
2022/08/12,22:30,0.606,0.861,0.542,1.028,0.748,0.344,0.595,0.559,��쐼,11.1,��
2022/08/12,22:40,0.608,0.862,0.541,1.029,0.748,0.344,0.595,0.561,��,11.6,��
2022/08/12,22:50,0.608,0.863,0.542,1.029,0.748,0.344,0.598,0.561,��,11.1,��
2022/08/12,23:00,0.609,0.861,0.540,1.027,0.748,0.344,0.597,0.559,��,10.9,��
2022/08/12,23:10,0.606,0.862,0.539,1.029,0.748,0.344,0.597,0.560,��쐼,10.0,��
2022/08/12,23:20,0.607,0.862,0.541,1.029,0.748,0.346,0.597,0.561,��쐼,9.3,��
2022/08/12,23:30,0.607,0.863,0.541,1.028,0.746,0.344,0.597,0.561,��,10.4,��
2022/08/12,23:40,0.607,0.862,0.543,1.027,0.749,0.344,0.597,0.561,��쐼,9.9,��
2022/08/12,23:50,0.608,0.862,0.542,1.028,0.746,0.344,0.596,0.560,��,13.0,��
